This demonstration page uses our WeatherBlox Daily Observations layout. Learn more.

Left ArrowRight Arrow

Hourly Observations for February 15, 2016

Temp ( °F °C ) Dew Point ( °F °C ) Humidity (%) Winds ( mph kmh ) Pressure ( in mb ) Visibility ( mi km ) Precip ( " mm )
12:51 am 00:51 Clear 53 11.7 24 -4.4 32 32 N N/A 29.92 1013 10 16.0934 N/A
1:51 am 01:51 Clear 53 11.7 24 -4.4 32 32 NNW 8 13 29.94 1014 10 16.0934 N/A
2:51 am 02:51 Clear 51 10.6 24 -4.4 35 35 NNW 3 6 29.94 1014 10 16.0934 N/A
3:51 am 03:51 Clear 51 10.6 20 -6.7 29 29 NW 6 9 29.93 1014 10 16.0934 N/A
4:51 am 04:51 Clear 42 5.6 22 -5.6 45 45 SE 6 9 29.97 1015 10 16.0934 N/A
5:51 am 05:51 Clear 42 5.6 20 -6.7 41 41 N N/A 29.99 1016 10 16.0934 N/A
6:51 am 06:51 Clear 39 3.9 21 -6.1 48 48 E 5 7 30.03 1017 10 16.0934 N/A
7:51 am 07:51 Sunny 46 7.8 21 -6.1 37 37 N N/A 30.03 1017 10 16.0934 N/A
8:51 am 08:51 Sunny 53 11.7 21 -6.1 28 28 N N/A 30.04 1017 10 16.0934 N/A
9:51 am 09:51 Sunny 60 15.6 20 -6.7 21 21 N 5 7 30.03 1017 10 16.0934 N/A
10:51 am 10:51 Sunny 64 17.8 20 -6.7 18 18 WSW 6 9 30.04 1017 10 16.0934 N/A
11:51 am 11:51 Sunny 67 19.4 20 -6.7 17 17 W 8 13 30 1016 10 16.0934 N/A
12:51 pm 12:51 Sunny 70 21.1 19 -7.2 14 14 VRB 7 11 29.96 1014 10 16.0934 N/A
1:51 pm 13:51 Sunny 72 22.2 19 -7.2 13 13 N N/A 29.9 1013 10 16.0934 N/A
2:51 pm 14:51 Sunny 74 23.3 17 -8.3 11 11 N N/A 29.87 1012 10 16.0934 N/A
3:51 pm 15:51 Sunny 76 24.4 18 -7.8 11 11 NNW 3 6 29.86 1011 10 16.0934 N/A
4:51 pm 16:51 Sunny 76 24.4 19 -7.2 12 12 NW 8 13 29.87 1011 10 16.0934 N/A
5:51 pm 17:51 Sunny 72 22.2 18 -7.8 13 13 WNW 5 7 29.87 1011 10 16.0934 N/A
6:51 pm 18:51 Clear 64 17.8 18 -7.8 17 17 N 7 11 29.9 1012 10 16.0934 N/A
7:51 pm 19:51 Clear 61 16.1 20 -6.7 20 20 N 7 11 29.91 1013 10 16.0934 N/A
8:51 pm 20:51 Clear 55 12.8 23 -5 29 29 SSE 3 6 29.93 1013 10 16.0934 N/A
9:51 pm 21:51 Clear 53 11.7 22 -5.6 30 30 N N/A 29.93 1014 10 16.0934 N/A
10:51 pm 22:51 Clear 49 9.4 21 -6.1 33 33 N N/A 29.95 1014 10 16.0934 N/A
11:51 pm 23:51 Clear 47 8.3 21 -6.1 36 36 S 7 11 29.96 1015 10 16.0934 N/A

Powered by AerisWeather